Flag for Hungary Weather past 2 weeks in Debrecen, Hungary

Now
61 °F

Mostly cloudy.


Feels Like: 61 °F
Forecast: 48 / 60 °F
Wind: 3 mph from West

Location: Debrecen Airport

Current Time: Apr 28, 2015 at 10:52:48 PM

Latest Report: Apr 28, 2015 at 8:45 PM


Visibility: N/A

Pressure: 29.71 "Hg

Humidity: 72%

Dew point: 52 °F

Location of DebrecenLocation

Historic Weather in Debrecen — Graph

°F

Debrecen temperature yesterday

Maximum temperature yesterday: 77 °F (at 3:15 PM)
Minimum temperature yesterday: 46 °F (at 4:45 AM)
Average temperature yesterday: 66 °F

Past Weeks' High & Low Weather Summary

 TemperatureHumidityPressure
High79 °F (Apr 16, 1:45 PM)94% (Apr 17, 8:15 PM)30.30 "Hg (Apr 17, 8:15 PM)
Low32 °F (Apr 20, 6:15 AM)16% (Apr 16, 5:15 PM)29.68 "Hg (Apr 28, 4:45 AM)
Average58 °F48%29.99 "Hg
* Reported Apr 13 8:15 PM — Apr 28 8:45 PM, Debrecen, Weather by CustomWeather, © 2015

Note: Actual official high and low records may vary slightly from our data, if they occured in-between our weather recording intervals... More about our weather records

Advertising

Debrecen weather history for previous 24 hours

 ConditionsComfort  
Time TempWeatherWind HumidityBarometerVisibility
8:45 PM
Tue, Apr 28
61 °FMostly cloudy.3 mph72%29.71 "HgN/A
8:15 PM63 °FMostly cloudy.3 mph68%29.71 "HgN/A
7:45 PM63 °FMostly cloudy.5 mph68%29.68 "HgN/A
7:15 PM63 °FBroken clouds.6 mph68%29.68 "HgN/A
6:45 PM64 °FBroken clouds.5 mph60%29.68 "HgN/A
6:15 PM64 °FBroken clouds.5 mph60%29.68 "HgN/A
5:45 PM66 °FBroken clouds.5 mph52%29.68 "HgN/A
5:15 PM66 °FBroken clouds.7 mph52%29.68 "HgN/A
4:45 PM66 °FBroken clouds.12 mph52%29.68 "HgN/A
4:15 PM66 °FBroken clouds.15 mph52%29.68 "HgN/A
3:45 PM66 °FLight rain. Broken clouds.17 mph56%29.68 "HgN/A
3:15 PM66 °FBroken clouds.16 mph52%29.68 "HgN/A
2:45 PM66 °FBroken clouds.15 mph52%29.68 "HgN/A
2:15 PM66 °FBroken clouds.12 mph60%29.71 "HgN/A
1:45 PM66 °FPartly sunny.14 mph56%29.71 "HgN/A
1:15 PM66 °FPartly sunny.14 mph56%29.71 "HgN/A
12:45 PM70 °FScattered clouds.14 mph53%29.71 "HgN/A
12:15 PM66 °FSprinkles. Broken clouds.9 mph64%29.71 "HgN/A
11:45 AM68 °FSprinkles. Broken clouds.9 mph53%29.71 "HgN/A
11:15 AM68 °FScattered clouds.7 mph60%29.71 "HgN/A
10:45 AM66 °FPartly sunny.6 mph60%29.71 "HgN/A
10:15 AM64 °FBroken clouds.6 mph68%29.71 "HgN/A
9:45 AM63 °FPartly sunny.5 mph73%29.71 "HgN/A
9:15 AM63 °FBroken clouds.3 mph73%29.71 "HgN/A
8:45 AM63 °FSprinkles. More clouds than sun.7 mph68%29.71 "HgN/A
8:15 AM61 °FMore clouds than sun.7 mph68%29.71 "HgN/A
7:45 AM61 °FMore clouds than sun.9 mph68%29.71 "HgN/A
7:15 AM61 °FMore clouds than sun.9 mph68%29.68 "HgN/A
6:45 AM61 °FBroken clouds.10 mph63%29.68 "HgN/A
6:15 AM61 °FSprinkles. Passing clouds.13 mph63%29.68 "HgN/A
4:45 AM59 °FPartly cloudy.10 mph72%29.68 "HgN/A
Weather by CustomWeather, © 2015

See weather overviewHow to use our weather pages